Tracking 27423 objects as of 8-Jun-2023
HD Live streaming from Space Station
objects crossing your sky now

COSMOS 1275 DEB

Track COSMOS 1275 DEB now!
10-day predictions


NORAD ID: 42181
Int'l Code: 1981-053SV
Perigee: 878.7 km
Apogee: 993.8 km
Inclination: 82.9 °
Period: 103.6 minutes
Semi major axis: 7307 km
RCS: Unknown
Launch date: June 4, 1981
Source: Commonwealth of Independent States (former USSR) (CIS)
Launch site: PLESETSK MISSILE AND SPACE COMPLEX (PKMTR)

Note: This is SATELLITE DEBRIS
Your satellite tracking list
Your tracking list is empty




NASA's NSSDC Master Catalog

Two Line Element Set (TLE):
1 42181U 81053SV  23158.84025074  .00000995  00000-0  77675-3 0  9990
2 42181  82.9027 198.7663 0078755  42.5466 318.1764 13.89859190925138
Source of the keplerian elements: AFSPC